Location: Baix
(44.7118°N, 4.7648°E)
Time: 19:24:46
(UTC+00:00)

Helios 1B rocket - Pass Details

Date: 07 August 2020
Orbit: 575 x 583 km, 98.1° (Epoch: 24 September)

Event Time Altitude Azimuth Distance (km) Brightness Sun altitude
Rises 00:44:37 0° 8° (N) 2,799 7.2 -27.5°
Reaches altitude 10° 00:46:48 10° 4° (N) 1,895 6.0 -27.4°
Enters shadow 00:49:45 40° 335° (NNW) 855 3.5 -27.3°
